When you browse on this site, cookies collect data to enhance your experience and personalize the content and advertising you see.
Visit our Privacy Policy to learn more. By continuing to use the site, you agree to this use of cookies and data.
  • In United Kingdom
  • List of Countries
  • For 7 days
  • Water Temperature
  • Weather Map
  • Weather Widgets
  • user-avatar
    Login

    Hourly Weather Innsbruck

    Today, 18 August, Sunday

    Time Temperature Precipitation Wind Pressure Humidity
    00:00 +9°C° 0 mm 1 mps 598 mmHg 84%
    01:00 +9°C° 0 mm 2 mps 598 mmHg 85%
    02:00 +9°C° 0 mm 2 mps 598 mmHg 84%
    03:00 +9°C° 0 mm 2 mps 598 mmHg 83%
    04:00 +9°C° 0 mm 2 mps 598 mmHg 83%
    05:00 +10°C° 0 mm 2 mps 598 mmHg 81%
    06:00 +12°C° 0 mm 2 mps 599 mmHg 79%
    07:00 +14°C° 0 mm 1 mps 599 mmHg 76%
    08:00 +16°C° 0 mm 1 mps 600 mmHg 69%
    09:00 +19°C° 0 mm 1 mps 601 mmHg 62%
    10:00 +21°C° 0 mm 1 mps 602 mmHg 55%
    11:00 +21°C° 0 mm 1 mps 602 mmHg 51%
    12:00 +21°C° 0 mm 2 mps 602 mmHg 48%
    13:00 +23°C° 0 mm 2 mps 602 mmHg 45%
    14:00 +21°C° 0.1 mm 2 mps 601 mmHg 49%
    15:00 +20°C° 0.1 mm 2 mps 601 mmHg 53%
    16:00 +19°C° 0.1 mm 2 mps 600 mmHg 58%
    17:00 +17°C° 0.2 mm 2 mps 600 mmHg 65%
    18:00 +16°C° 0.2 mm 1 mps 599 mmHg 73%
    19:00 +14°C° 0.2 mm 1 mps 599 mmHg 81%
    20:00 +13°C° 0.2 mm 1 mps 599 mmHg 84%
    21:00 +12°C° 0.2 mm 2 mps 598 mmHg 88%
    22:00 +10°C° 0.2 mm 2 mps 598 mmHg 91%
    23:00 +10°C° 0.1 mm 2 mps 598 mmHg 92%

    Tomorrow, 19 August, Monday

    Time Temperature Precipitation Wind Pressure Humidity
    00:00 +10°C° 0.1 mm 1 mps 598 mmHg 94%
    01:00 +10°C° 0.1 mm 1 mps 598 mmHg 95%
    02:00 +10°C° 0.1 mm 1 mps 598 mmHg 95%
    03:00 +10°C° 0.1 mm 1 mps 598 mmHg 95%
    04:00 +10°C° 0.1 mm 1 mps 598 mmHg 95%
    05:00 +11°C° 0.4 mm 1 mps 599 mmHg 94%
    06:00 +11°C° 0.4 mm 1 mps 599 mmHg 94%
    07:00 +10°C° 0.4 mm 0 mps 599 mmHg 93%
    08:00 +12°C° 0.3 mm 1 mps 600 mmHg 89%
    09:00 +13°C° 0.3 mm 1 mps 601 mmHg 85%
    10:00 +14°C° 0.3 mm 1 mps 601 mmHg 81%
    11:00 +15°C° 0.7 mm 1 mps 601 mmHg 78%
    12:00 +15°C° 0.7 mm 1 mps 602 mmHg 75%
    13:00 +16°C° 0.7 mm 1 mps 602 mmHg 72%
    14:00 +15°C° 1.2 mm 1 mps 602 mmHg 76%
    15:00 +15°C° 1.2 mm 1 mps 601 mmHg 80%
    16:00 +14°C° 1.2 mm 1 mps 601 mmHg 84%
    17:00 +13°C° 0.9 mm 1 mps 601 mmHg 87%
    18:00 +12°C° 0.9 mm 1 mps 600 mmHg 91%
    19:00 +11°C° 0.9 mm 0 mps 600 mmHg 94%
    20:00 +10°C° 0.4 mm 0 mps 600 mmHg 94%
    21:00 +10°C° 0.4 mm 0 mps 600 mmHg 94%
    22:00 +10°C° 0.4 mm 0 mps 600 mmHg 93%
    23:00 +10°C° 0.3 mm 0 mps 600 mmHg 93%

    Day after tomorrow, 20 August, Tuesday

    Time Temperature Precipitation Wind Pressure Humidity
    00:00 +11°C° 0.3 mm 1 mps 600 mmHg 92%
    01:00 +11°C° 0.3 mm 1 mps 600 mmHg 92%
    02:00 +10°C° 0.3 mm 1 mps 600 mmHg 92%
    03:00 +10°C° 0.3 mm 1 mps 600 mmHg 92%
    04:00 +10°C° 0.3 mm 1 mps 600 mmHg 91%
    05:00 +10°C° 0.1 mm 1 mps 600 mmHg 90%
    06:00 +11°C° 0.1 mm 1 mps 600 mmHg 90%
    07:00 +12°C° 0.1 mm 1 mps 601 mmHg 89%
    08:00 +13°C° 0.2 mm 1 mps 601 mmHg 84%
    09:00 +14°C° 0.2 mm 1 mps 602 mmHg 79%
    10:00 +16°C° 0.2 mm 2 mps 602 mmHg 73%
    11:00 +16°C° 0.6 mm 2 mps 602 mmHg 74%
    12:00 +16°C° 0.6 mm 2 mps 602 mmHg 75%
    13:00 +16°C° 0.6 mm 2 mps 602 mmHg 75%
    14:00 +16°C° 0.9 mm 2 mps 602 mmHg 77%
    15:00 +16°C° 0.9 mm 2 mps 602 mmHg 79%
    16:00 +15°C° 0.9 mm 2 mps 602 mmHg 81%
    17:00 +14°C° 0.6 mm 2 mps 601 mmHg 86%
    18:00 +12°C° 0.6 mm 2 mps 601 mmHg 91%
    19:00 +11°C° 0.6 mm 1 mps 601 mmHg 96%
    20:00 +10°C° 0.5 mm 1 mps 601 mmHg 96%
    21:00 +9°C° 0.5 mm 1 mps 601 mmHg 97%
    22:00 +8°C° 0.5 mm 2 mps 601 mmHg 98%
    23:00 +7°C° 0.2 mm 2 mps 601 mmHg 98%

    21 August, Wednesday

    Time Temperature Precipitation Wind Pressure Humidity
    00:00 +7°C° 0.2 mm 2 mps 601 mmHg 98%
    01:00 +7°C° 0.2 mm 2 mps 601 mmHg 98%
    02:00 +6°C° 0.4 mm 2 mps 601 mmHg 98%
    03:00 +6°C° 0.4 mm 2 mps 601 mmHg 98%
    04:00 +6°C° 0.4 mm 2 mps 601 mmHg 98%
    05:00 +6°C° 0.3 mm 2 mps 601 mmHg 98%
    06:00 +6°C° 0.3 mm 2 mps 601 mmHg 97%
    07:00 +5°C° 0.3 mm 2 mps 601 mmHg 97%
    08:00 +7°C° 1.1 mm 1 mps 601 mmHg 94%
    09:00 +8°C° 1.1 mm 1 mps 602 mmHg 91%
    10:00 +9°C° 1.1 mm 1 mps 602 mmHg 88%
    11:00 +10°C° 0 mm 1 mps 602 mmHg 83%
    12:00 +11°C° 0 mm 1 mps 603 mmHg 78%
    13:00 +13°C° 0 mm 2 mps 603 mmHg 73%
    14:00 +13°C° 0.1 mm 2 mps 603 mmHg 73%
    15:00 +13°C° 0.1 mm 2 mps 603 mmHg 74%
    16:00 +13°C° 0.1 mm 2 mps 602 mmHg 75%
    17:00 +11°C° 0.1 mm 1 mps 602 mmHg 80%
    18:00 +10°C° 0.1 mm 1 mps 602 mmHg 86%
    19:00 +9°C° 0.1 mm 1 mps 601 mmHg 92%
    20:00 +9°C° 0.1 mm 1 mps 601 mmHg 93%
    21:00 +8°C° 0.1 mm 1 mps 601 mmHg 94%
    22:00 +7°C° 0.1 mm 1 mps 601 mmHg 95%
    23:00 +7°C° 0 mm 1 mps 601 mmHg 94%

    22 August, Thursday

    Time Temperature Precipitation Wind Pressure Humidity
    00:00 +7°C° 0 mm 1 mps 601 mmHg 93%
    01:00 +7°C° 0 mm 1 mps 601 mmHg 93%
    02:00 +7°C° 0 mm 1 mps 600 mmHg 92%
    03:00 +7°C° 0 mm 1 mps 600 mmHg 92%
    04:00 +7°C° 0 mm 1 mps 600 mmHg 91%
    05:00 +7°C° 0 mm 0 mps 601 mmHg 88%
    06:00 +8°C° 0 mm 0 mps 601 mmHg 85%
    07:00 +9°C° 0 mm 0 mps 602 mmHg 82%
    08:00 +11°C° 0 mm 0 mps 603 mmHg 76%
    09:00 +14°C° 0 mm 1 mps 604 mmHg 70%
    10:00 +15°C° 0 mm 1 mps 604 mmHg 64%
    11:00 +16°C° 0.2 mm 1 mps 605 mmHg 61%
    12:00 +18°C° 0.2 mm 1 mps 605 mmHg 58%
    13:00 +18°C° 0.2 mm 2 mps 605 mmHg 56%
    14:00 +17°C° 0.6 mm 2 mps 605 mmHg 62%
    15:00 +16°C° 0.6 mm 2 mps 604 mmHg 68%
    16:00 +15°C° 0.6 mm 2 mps 604 mmHg 74%
    17:00 +14°C° 0.4 mm 2 mps 603 mmHg 81%
    18:00 +12°C° 0.4 mm 1 mps 603 mmHg 88%
    19:00 +11°C° 0.4 mm 1 mps 602 mmHg 96%
    20:00 +10°C° 0 mm 1 mps 602 mmHg 96%
    21:00 +9°C° 0 mm 1 mps 602 mmHg 96%
    22:00 +9°C° 0 mm 1 mps 602 mmHg 96%
    23:00 +8°C° 0 mm 0 mps 602 mmHg 94%

    23 August, Friday

    Time Temperature Precipitation Wind Pressure Humidity
    00:00 +7°C° 0 mm 0 mps 602 mmHg 93%
    01:00 +7°C° 0 mm 0 mps 602 mmHg 92%
    02:00 +7°C° 0 mm 0 mps 601 mmHg 91%
    03:00 +6°C° 0 mm 0 mps 601 mmHg 90%
    04:00 +7°C° 0 mm 1 mps 600 mmHg 89%
    05:00 +8°C° 0 mm 1 mps 601 mmHg 86%
    06:00 +10°C° 0 mm 1 mps 602 mmHg 83%
    07:00 +11°C° 0 mm 1 mps 602 mmHg 80%
    08:00 +13°C° 0 mm 1 mps 603 mmHg 72%
    09:00 +15°C° 0 mm 1 mps 604 mmHg 64%
    10:00 +19°C° 0 mm 1 mps 605 mmHg 55%
    11:00 +19°C° 0.2 mm 1 mps 605 mmHg 53%
    12:00 +20°C° 0.2 mm 1 mps 605 mmHg 50%
    13:00 +21°C° 0.2 mm 1 mps 605 mmHg 48%
    14:00 +20°C° 0.5 mm 1 mps 605 mmHg 51%
    15:00 +20°C° 0.5 mm 1 mps 605 mmHg 54%
    16:00 +20°C° 0.5 mm 1 mps 604 mmHg 57%
    17:00 +16°C° 1.1 mm 1 mps 603 mmHg 67%
    18:00 +14°C° 1.1 mm 1 mps 602 mmHg 78%
    19:00 +12°C° 1.1 mm 1 mps 601 mmHg 88%
    20:00 +11°C° 0.1 mm 1 mps 601 mmHg 88%
    21:00 +11°C° 0.1 mm 1 mps 601 mmHg 88%
    22:00 +10°C° 0.1 mm 1 mps 601 mmHg 88%
    23:00 +10°C° 0 mm 1 mps 601 mmHg 87%
    Show more